Location: UBC Liquid-Mirror Observatory
(49.2876°N, 122.5728°W)
Time: 13:59:13
(UTC-07:00)

Amateur Radio Satellites - All Passes

Search period start: 26 April 2015 13:29
Search period end: 27 April 2015 13:29
Location: UBC Liquid-Mirror Observatory, 49.2876°N, 122.5728°W

Satellite Date Start Highest point End Downlink Frequencies (MHz)
Time Altitude Azimuth
TISAT 1 26 Apr 13:38:01 13:42:15 66° 101° (E) 13:46:30 437.305
Gurwin Techsat 1B 26 Apr 13:39:37 13:44:09 30° 63° (ENE) 13:48:47 435.225
ESTCUBE 1 26 Apr 13:53:09 13:56:47 24° 297° (WNW) 14:00:18 437.505/2401.250
Oscar 19 26 Apr 14:06:30 14:11:35 57° 259° (W) 14:16:44 437.125/150
HORYU 2 26 Apr 14:09:20 14:10:59 12° 55° (NE) 14:12:49 437.375
ITUPSAT 1 26 Apr 14:09:25 14:13:19 25° 92° (E) 14:17:17 437.325
SPROUT 26 Apr 14:12:13 14:16:23 46° 290° (WNW) 14:20:32 437.525
ISS 26 Apr 14:13:01 14:16:17 76° 343° (NNW) 14:19:34 145.825
Cosmos 2504 26 Apr 14:26:20 14:35:17 84° 281° (W) 14:44:01 435.465 / 435.565
YUBILEINY 26 Apr 14:30:31 14:35:36 16° 315° (NW) 14:40:18 435.215
CUBEBUG 1 26 Apr 14:33:16 14:35:05 12° 303° (WNW) 14:36:46 437.445
JAS-2 26 Apr 14:38:34 14:44:48 28° 57° (ENE) 14:50:53 435.910
BEESAT 26 Apr 14:39:14 14:43:50 47° 99° (E) 14:48:26 436.000
SWISSCUBE 26 Apr 14:41:53 14:46:34 53° 100° (E) 14:51:13 437.505
ITAMSAT 1 26 Apr 14:43:07 14:48:18 78° 256° (WSW) 14:53:31 435.822/435.867
PCSat 26 Apr 14:56:07 14:59:30 16° 22° (NNE) 15:02:57 145.827
GONETS M04 26 Apr 14:59:43 15:03:23 14° 71° (ENE) 15:07:36
SO-50 26 Apr 15:01:03 15:04:27 18° 340° (NNW) 15:07:51 436.795
AO-7 26 Apr 15:02:49 15:10:31 47° 58° (ENE) 15:18:20 29.400- 29.500
STARS 26 Apr 15:12:30 15:14:48 14° 87° (E) 15:17:17 437.465
TISAT 1 26 Apr 15:14:52 15:17:37 17° 300° (WNW) 15:20:16 437.305
RS-15 26 Apr 15:15:41 15:26:26 71° 122° (ESE) 15:37:32 29.354- 29.394
Gurwin Techsat 1B 26 Apr 15:18:51 15:23:59 47° 262° (W) 15:29:07 435.225
HORYU 2 26 Apr 15:42:26 15:46:56 76° 74° (ENE) 15:51:28 437.375
ITUPSAT 1 26 Apr 15:46:53 15:51:28 46° 292° (WNW) 15:55:59 437.325
ISS 26 Apr 15:49:37 15:52:51 55° 4° (N) 15:56:05 145.825
KKS-1 26 Apr 15:55:17 15:59:42 53° 100° (E) 16:04:07 437.445
BEESAT 26 Apr 16:17:31 16:21:29 26° 297° (WNW) 16:25:22 436.000
SWISSCUBE 26 Apr 16:20:21 16:24:08 23° 299° (WNW) 16:27:49 437.505
JAS-2 26 Apr 16:21:18 16:29:13 84° 256° (WSW) 16:36:45 435.910
Cosmos 2504 26 Apr 16:23:10 16:30:10 24° 304° (NW) 16:36:46 435.465 / 435.565
ITAMSAT 1 26 Apr 16:26:46 16:28:48 12° 276° (W) 16:30:33 435.822/435.867
MOZHAYETS 4 26 Apr 16:31:38 16:32:59 11° 84° (E) 16:34:34
PCSat 26 Apr 16:39:04 16:44:18 47° 46° (NE) 16:49:33 145.827
SO-50 26 Apr 16:44:22 16:46:51 14° 4° (N) 16:49:22 436.795
STARS 26 Apr 16:47:23 16:51:51 74° 287° (WNW) 16:56:18 437.465
GONETS M04 26 Apr 16:49:57 16:58:30 62° 92° (E) 17:07:11
DANDE 26 Apr 16:51:41 16:53:44 14° 80° (E) 16:56:15 436.750
AO-7 26 Apr 16:55:18 17:03:20 52° 259° (W) 17:11:23 29.400- 29.500
Cosmos 2499 26 Apr 16:57:50 17:01:31 14° 73° (ENE) 17:05:41 435.465 / 435.565
VERMONT LUNAR 26 Apr 17:06:57 17:07:57 11° 160° (SSE) 17:09:00 437.305
HORYU 2 26 Apr 17:21:43 17:24:12 14° 273° (W) 17:26:31 437.375
ISS 26 Apr 17:26:03 17:29:19 68° 203° (SSW) 17:32:33 145.825
RS-15 26 Apr 17:28:58 17:39:34 51° 330° (NNW) 17:50:33 29.354- 29.394
KKS-1 26 Apr 17:32:36 17:36:02 21° 298° (WNW) 17:39:23 437.445
CUTE-I 26 Apr 17:41:01 17:45:51 38° 65° (ENE) 17:50:45 437.470
CUSAT 1 26 Apr 17:45:13 17:49:08 68° 97° (E) 17:54:27 437.405
Cubesat XI-IV 26 Apr 17:50:45 17:55:47 45° 67° (ENE) 18:00:52 437.490
MOZHAYETS 4 26 Apr 18:06:24 18:11:02 87° 104° (ESE) 18:15:37
JAS-2 26 Apr 18:09:35 18:15:18 21° 276° (W) 18:20:34 435.910
CUBESAT XI-V 26 Apr 18:12:17 18:12:23 10° 83° (E) 18:12:46 437.345
PCSat 26 Apr 18:22:43 18:27:40 36° 246° (WSW) 18:32:32 145.827
SO-50 26 Apr 18:25:09 18:29:06 24° 28° (NNE) 18:33:07 436.795
STARS 26 Apr 18:25:59 18:27:36 12° 305° (NW) 18:29:02 437.465
DANDE 26 Apr 18:32:25 18:36:05 57° 288° (WNW) 18:41:01 436.750
M-CUBED/EXP-1 PRIME 26 Apr 18:41:49 18:44:00 14° 92° (E) 18:46:14 437.505
VERMONT LUNAR 26 Apr 18:42:14 18:44:40 18° 176° (S) 18:47:07 437.305
Cosmos 2499 26 Apr 18:44:32 18:53:09 60° 93° (E) 19:01:31 435.465 / 435.565
STRAND 1 26 Apr 18:44:51 18:46:13 11° 83° (E) 18:47:54 437.568
GONETS M04 26 Apr 18:47:52 18:55:57 37° 296° (WNW) 19:03:58
BRITE-PL 26 Apr 19:00:25 19:02:30 14° 57° (ENE) 19:04:48 437.365/2234.400
ISS 26 Apr 19:03:13 19:05:13 15° 221° (SW) 19:07:09 145.825
CANX-2 26 Apr 19:13:17 19:13:25 10° 56° (NE) 19:13:45 2200.000
CUTE-I 26 Apr 19:21:03 19:25:58 37° 264° (W) 19:30:52 437.470
CUTE 1.7 + AOD 2 26 Apr 19:21:10 19:22:19 11° 57° (ENE) 19:23:39 437.475
AUBIESAT-1 26 Apr 19:22:02 19:25:46 30° 100° (E) 19:29:16 437.475
PHONESAT 2.4 26 Apr 19:22:07 19:24:42 19° 173° (S) 19:27:19 2401.200-2431.200
HO-68 26 Apr 19:22:55 19:28:54 30° 55° (NE) 19:35:01 435.675
CUSAT 1 26 Apr 19:29:51 19:32:54 17° 308° (NW) 19:36:21 437.405
Cubesat XI-IV 26 Apr 19:31:24 19:36:05 30° 266° (W) 19:40:44 437.490
RS-15 26 Apr 19:45:01 19:55:05 37° 3° (N) 20:05:35 29.354- 29.394
MOZHAYETS 4 26 Apr 19:45:05 19:47:40 15° 302° (WNW) 19:50:06
CUBESAT XI-V 26 Apr 19:46:06 19:50:45 78° 103° (ESE) 19:55:21 437.345
PRISM 26 Apr 19:48:23 19:52:23 49° 100° (E) 19:56:22 437.425
CINEMA 3 26 Apr 19:49:19 19:50:40 11° 54° (NE) 19:52:12 145.822/145.860
SO-50 26 Apr 20:05:24 20:10:23 83° 50° (NE) 20:15:20 436.795
COMPASS 1 26 Apr 20:07:42 20:10:48 20° 63° (ENE) 20:14:00 437.405
M-CUBED/EXP-1 PRIME 26 Apr 20:15:11 20:19:30 68° 293° (WNW) 20:23:25 437.505
GOMX 1 26 Apr 20:17:29 20:21:32 44° 69° (ENE) 20:25:52 467.674
VERMONT LUNAR 26 Apr 20:19:24 20:21:27 15° 193° (SSW) 20:23:28 437.305
STRAND 1 26 Apr 20:21:19 20:26:26 76° 103° (ESE) 20:31:33 437.568
Oscar 11 26 Apr 20:31:10 20:33:54 17° 60° (ENE) 20:36:46 145.826/435.025
SEEDS 26 Apr 20:34:03 20:38:04 41° 70° (ENE) 20:42:08 437.485
YUBILEINY 26 Apr 20:35:58 20:42:51 26° 56° (NE) 20:49:56 435.215
ZACube-1 26 Apr 20:36:03 20:37:35 12° 56° (NE) 20:39:19 437.345
BRITE-PL 26 Apr 20:36:16 20:40:26 81° 257° (WSW) 20:44:52 437.365/2234.400
Cosmos 2499 26 Apr 20:38:36 20:46:48 39° 294° (WNW) 20:54:35 435.465 / 435.565
CANX-2 26 Apr 20:44:18 20:48:35 68° 74° (ENE) 20:52:54 2200.000
DOVE 4 26 Apr 20:47:47 20:52:02 60° 72° (ENE) 20:56:34 437.250
AAUSAT CUBESAT 2 26 Apr 20:48:12 20:52:10 41° 70° (ENE) 20:56:12 437.432
CUTE 1.7 + AOD 2 26 Apr 20:53:14 20:57:32 76° 74° (ENE) 21:01:52 437.475
AUBIESAT-1 26 Apr 20:56:47 21:00:35 31° 301° (WNW) 21:04:04 437.475
PHONESAT 2.4 26 Apr 20:59:43 21:02:16 18° 189° (S) 21:04:47 2401.200-2431.200
DX 1 26 Apr 21:07:17 21:09:43 15° 59° (ENE) 21:12:18 434.975-435.025
HO-68 26 Apr 21:08:57 21:16:09 72° 255° (WSW) 21:23:23 435.675
CUBEBUG 2 26 Apr 21:13:47 21:17:48 34° 67° (ENE) 21:21:58 437.445
CINEMA 3 26 Apr 21:22:38 21:27:01 71° 74° (ENE) 21:31:40 145.822/145.860
PRISM 26 Apr 21:24:32 21:27:34 20° 298° (WNW) 21:30:30 437.425
CUBESAT XI-V 26 Apr 21:24:48 21:27:40 16° 301° (WNW) 21:30:24 437.345
UWE-3 26 Apr 21:36:58 21:41:11 46° 69° (ENE) 21:45:35 435.000/436.395/437.385
O/OREOS (USA 219) 26 Apr 21:38:57 21:41:26 15° 100° (E) 21:44:04 437.305
COMPASS 1 26 Apr 21:42:03 21:46:12 50° 261° (W) 21:50:21 437.405
FUNcube-1 26 Apr 21:43:10 21:47:18 43° 69° (ENE) 21:51:36 145.935
ESTCUBE 1 26 Apr 21:46:26 21:47:41 11° 55° (NE) 21:49:08 437.505/2401.250
UKube-1 26 Apr 21:46:56 21:50:42 31° 66° (ENE) 21:54:33 .
SO-50 26 Apr 21:47:02 21:50:24 18° 248° (WSW) 21:53:37 436.795
DELFI C3 26 Apr 21:50:26 21:54:30 67° 74° (ENE) 21:58:35 145.870
M-CUBED/EXP-1 PRIME 26 Apr 21:52:04 21:53:31 11° 313° (NW) 21:54:48 437.505
HUMSAT D 26 Apr 21:54:14 21:57:54 29° 66° (ENE) 22:01:40 437.325/437.525
GOMX 1 26 Apr 21:56:40 22:00:02 21° 270° (W) 22:03:25 467.674
RS-15 26 Apr 21:59:20 22:10:26 56° 34° (NE) 22:22:06 29.354- 29.394
STRAND 1 26 Apr 22:01:32 22:05:09 19° 302° (WNW) 22:08:38 437.568
Oscar 11 26 Apr 22:05:18 22:09:39 68° 258° (WSW) 22:14:01 145.826/435.025
ZACube-1 26 Apr 22:08:49 22:13:12 76° 74° (ENE) 22:17:44 437.345
SEEDS 26 Apr 22:10:36 22:14:05 23° 268° (W) 22:17:29 437.485
VELOX 1 26 Apr 22:17:55 22:21:49 32° 66° (ENE) 22:25:46 145.980
CUBEBUG 1 26 Apr 22:20:31 22:23:28 19° 61° (ENE) 22:26:31 437.445
CANX-2 26 Apr 22:22:31 22:25:03 15° 273° (W) 22:27:26 2200.000
Cosmos 2504 26 Apr 22:23:34 22:26:29 12° 42° (NE) 22:29:43 435.465 / 435.565
AAUSAT CUBESAT 2 26 Apr 22:24:36 22:28:00 23° 268° (W) 22:31:20 437.432
DOVE 4 26 Apr 22:27:30 22:30:22 17° 273° (W) 22:33:13 437.250
Cosmos 2491 26 Apr 22:27:37 22:35:29 41° 86° (E) 22:43:34 435.465 / 435.565
50 SAT 26 Apr 22:31:21 22:35:08 42° 70° (ENE) 22:39:00 437.505
CUTE 1.7 + AOD 2 26 Apr 22:31:55 22:34:04 13° 274° (W) 22:36:02 437.475
YUBILEINY 26 Apr 22:32:16 22:41:06 89° 261° (W) 22:49:49 435.215
AISAT 26 Apr 22:35:57 22:40:10 48° 70° (ENE) 22:44:27 437.250
DX 1 26 Apr 22:41:08 22:45:28 77° 256° (WSW) 22:49:50 434.975-435.025
Cosmos 2499 26 Apr 22:41:42 22:43:04 10° 321° (NW) 22:43:57 435.465 / 435.565
ANTELSAT 26 Apr 22:47:32 22:50:46 18° 88° (E) 22:54:05 437.575/2403.000
CUBEBUG 2 26 Apr 22:50:35 22:54:32 31° 267° (W) 22:58:35 437.445
HO-68 26 Apr 23:01:11 23:05:20 15° 277° (W) 23:09:06 435.675
TISAT 1 26 Apr 23:01:42 23:03:09 12° 57° (ENE) 23:04:46 437.305
CINEMA 3 26 Apr 23:02:16 23:04:54 15° 275° (W) 23:07:25 145.822/145.860
QB50P2 26 Apr 23:05:50 23:07:45 13° 86° (E) 23:09:51 145.880/145.840
UWE-3 26 Apr 23:14:28 23:18:00 22° 270° (W) 23:21:32 435.000/436.395/437.385
O/OREOS (USA 219) 26 Apr 23:15:45 23:20:20 75° 298° (WNW) 23:24:54 437.305
ESTCUBE 1 26 Apr 23:19:20 23:23:49 71° 73° (ENE) 23:28:19 437.505/2401.250
FUNcube-1 26 Apr 23:20:15 23:23:51 24° 269° (W) 23:27:28 145.935
NANOSAT C BR1 26 Apr 23:22:13 23:25:10 18° 90° (E) 23:28:13 145.865
UKube-1 26 Apr 23:22:57 23:26:50 32° 264° (W) 23:30:43 .
POPSAT HIP 1 26 Apr 23:25:55 23:29:03 20° 91° (E) 23:32:17 437.405
DELFI C3 26 Apr 23:28:00 23:30:09 13° 273° (W) 23:32:08 145.870
HUMSAT D 26 Apr 23:29:43 23:33:36 33° 265° (W) 23:37:31 437.325/437.525
SPROUT 26 Apr 23:34:57 23:38:35 28° 66° (ENE) 23:42:16 437.525
TIGRISAT 26 Apr 23:36:14 23:40:51 49° 99° (E) 23:45:23 435.000
UNISAT 6 26 Apr 23:41:09 23:45:49 55° 100° (E) 23:50:25 437.425
BUGSAT 1 26 Apr 23:43:13 23:46:19 20° 92° (E) 23:49:31 437.445
ZACube-1 26 Apr 23:47:54 23:50:14 14° 275° (W) 23:52:26 437.345
VELOX 1 26 Apr 23:54:26 23:58:23 31° 265° (W) 00:02:20 145.980
DUCHIFAT 1 26 Apr 23:55:03 23:59:01 36° 97° (E) 00:03:01 145.980
CUBEBUG 1 26 Apr 23:55:12 23:59:28 58° 259° (W) 00:03:46 437.445
POLYITAN 1 26 Apr 23:55:43 23:59:47 39° 97° (E) 00:03:51 437.675
50 SAT 27 Apr 00:07:04 00:10:10 21° 269° (W) 00:13:12 437.505
RS-15 27 Apr 00:12:05 00:23:22 64° 240° (WSW) 00:35:06 29.354- 29.394
QB50P1 27 Apr 00:13:19 00:17:35 57° 101° (E) 00:21:48 145.935-145.965
AISAT 27 Apr 00:13:41 00:17:04 21° 269° (W) 00:20:23 437.250
Cosmos 2504 27 Apr 00:14:50 00:22:40 48° 69° (ENE) 00:29:59 435.465 / 435.565
BEESAT 27 Apr 00:14:50 00:17:18 14° 56° (NE) 00:19:55 436.000
SWISSCUBE 27 Apr 00:17:11 00:19:59 16° 57° (ENE) 00:22:57 437.505
ANTELSAT 27 Apr 00:23:19 00:28:01 62° 288° (WNW) 00:32:37 437.575/2403.000
Cosmos 2491 27 Apr 00:23:41 00:32:14 54° 289° (WNW) 00:40:49 435.465 / 435.565
AIST 1 27 Apr 00:24:40 00:28:13 26° 90° (E) 00:31:50
YUBILEINY 27 Apr 00:30:27 00:36:49 22° 283° (WNW) 00:42:51 435.215
TISAT 1 27 Apr 00:34:07 00:38:18 84° 75° (ENE) 00:42:33 437.305
QB50P2 27 Apr 00:39:56 00:44:16 77° 286° (WNW) 00:48:34 145.880/145.840
NANOSAT C BR1 27 Apr 00:57:10 01:01:22 53° 289° (WNW) 01:05:33 145.865
O/OREOS (USA 219) 27 Apr 00:57:59 01:00:37 15° 320° (NW) 01:03:07 437.305
ESTCUBE 1 27 Apr 00:58:34 01:01:16 15° 273° (W) 01:03:47 437.505/2401.250
POPSAT HIP 1 27 Apr 01:01:04 01:05:14 49° 290° (WNW) 01:09:23 437.405
GONETS M04 27 Apr 01:01:19 01:02:40 10° 36° (NE) 01:04:30
SPROUT 27 Apr 01:10:39 01:14:35 35° 264° (W) 01:18:32 437.525
TIGRISAT 27 Apr 01:13:28 01:17:20 25° 297° (WNW) 01:21:05 435.000
BUGSAT 1 27 Apr 01:18:04 01:22:02 45° 290° (WNW) 01:26:01 437.445
UNISAT 6 27 Apr 01:18:35 01:22:16 22° 298° (WNW) 01:25:50 437.425
ITUPSAT 1 27 Apr 01:20:05 01:24:39 46° 68° (ENE) 01:29:15 437.325
KKS-1 27 Apr 01:24:05 01:25:51 12° 56° (NE) 01:27:47 437.445
DUCHIFAT 1 27 Apr 01:31:06 01:34:44 27° 295° (WNW) 01:38:19 145.980
POLYITAN 1 27 Apr 01:31:56 01:35:34 26° 295° (WNW) 01:39:08 437.675
BEESAT 27 Apr 01:49:42 01:54:30 85° 72° (ENE) 01:59:19 436.000
QB50P1 27 Apr 01:50:02 01:53:05 19° 298° (WNW) 01:56:03 145.935-145.965
SWISSCUBE 27 Apr 01:52:29 01:57:17 85° 253° (WSW) 02:02:06 437.505
AIST 1 27 Apr 02:01:50 02:05:46 34° 288° (WNW) 02:09:41
ANTELSAT 27 Apr 02:02:47 02:03:56 11° 306° (NW) 02:04:52 437.575/2403.000
Cosmos 2504 27 Apr 02:08:32 02:16:03 42° 273° (W) 02:22:58 435.465 / 435.565
STARS 27 Apr 02:13:11 02:16:32 22° 62° (ENE) 02:19:59 437.465
TISAT 1 27 Apr 02:13:24 02:14:47 11° 275° (W) 02:15:58 437.305
Oscar 19 27 Apr 02:13:47 02:18:37 37° 96° (E) 02:23:28 437.125/150
QB50P2 27 Apr 02:18:04 02:19:29 11° 304° (WNW) 02:20:43 145.880/145.840
RS-15 27 Apr 02:26:48 02:33:47 17° 262° (W) 02:40:08 29.354- 29.394
Cosmos 2491 27 Apr 02:27:02 02:31:47 15° 316° (NW) 02:36:09 435.465 / 435.565
CUSAT 1 27 Apr 02:33:52 02:39:22 23° 57° (ENE) 02:45:36 437.405
AIST 2 27 Apr 02:46:16 02:46:26 10° 109° (ESE) 02:46:49 435.215
ITAMSAT 1 27 Apr 02:52:05 02:56:25 27° 93° (E) 03:00:52 435.822/435.867
GONETS M04 27 Apr 02:54:53 03:03:01 39° 65° (ENE) 03:11:12
KKS-1 27 Apr 02:57:22 03:01:49 81° 75° (ENE) 03:06:18 437.445
ITUPSAT 1 27 Apr 02:58:48 03:02:47 25° 268° (W) 03:06:43 437.325
BEESAT 3 27 Apr 03:06:39 03:10:36 49° 123° (ESE) 03:14:38 437.485
BEESAT 2 27 Apr 03:10:06 03:14:02 45° 122° (ESE) 03:18:02 435.950
DANDE 27 Apr 03:22:48 03:29:15 35° 65° (ENE) 03:36:47 436.750
Gurwin Techsat 1B 27 Apr 03:30:28 03:35:38 51° 99° (E) 03:40:49 435.225
BEESAT 27 Apr 03:30:35 03:33:05 14° 274° (W) 03:35:21 436.000
JAS-2 27 Apr 03:31:17 03:32:17 11° 76° (ENE) 03:33:40 435.910
HORYU 2 27 Apr 03:32:03 03:33:09 11° 84° (E) 03:34:31 437.375
SWISSCUBE 27 Apr 03:34:07 03:35:59 12° 275° (W) 03:37:36 437.505
MOZHAYETS 4 27 Apr 03:36:50 03:40:04 19° 61° (ENE) 03:43:26
STARS 27 Apr 03:48:27 03:52:43 49° 261° (W) 03:57:02 437.465
Oscar 19 27 Apr 03:53:14 03:57:59 36° 295° (WNW) 04:02:40 437.125/150
CUSAT 1 27 Apr 04:15:42 04:23:10 79° 76° (ENE) 04:31:34 437.405
AIST 2 27 Apr 04:20:03 04:24:19 72° 127° (SE) 04:28:37 435.215
ITAMSAT 1 27 Apr 04:31:13 04:36:12 48° 292° (WNW) 04:41:10 435.822/435.867
Cosmos 2499 27 Apr 04:31:42 04:38:10 27° 59° (ENE) 04:44:25 435.465 / 435.565
KKS-1 27 Apr 04:37:00 04:39:08 13° 274° (W) 04:41:05 437.445
AUBIESAT-1 27 Apr 04:40:26 04:43:13 16° 52° (NE) 04:46:07 437.475
BEESAT 3 27 Apr 04:45:12 04:48:50 28° 323° (NW) 04:52:27 437.485
BEESAT 2 27 Apr 04:48:34 04:52:18 30° 322° (NW) 04:56:01 435.950
AO-7 27 Apr 04:51:35 04:59:26 44° 98° (E) 05:07:21 29.400- 29.500
GONETS M04 27 Apr 04:51:43 05:00:23 59° 268° (W) 05:08:55
DANDE 27 Apr 05:05:42 05:12:57 67° 263° (W) 05:21:22 436.750
HORYU 2 27 Apr 05:06:04 05:10:37 86° 104° (ESE) 05:15:06 437.375
Gurwin Techsat 1B 27 Apr 05:10:54 05:15:25 28° 298° (WNW) 05:19:51 435.225
MOZHAYETS 4 27 Apr 05:12:18 05:16:54 63° 259° (W) 05:21:32
JAS-2 27 Apr 05:12:44 05:19:11 64° 100° (E) 05:24:52 435.910
CUBESAT XI-V 27 Apr 05:18:07 05:21:09 18° 60° (ENE) 05:24:19 437.345
M-CUBED/EXP-1 PRIME 27 Apr 05:32:05 05:36:38 42° 62° (ENE) 05:41:10 437.505
CUSAT 1 27 Apr 05:59:13 06:05:29 28° 273° (W) 06:12:04 437.405
AIST 2 27 Apr 05:59:49 06:03:21 24° 327° (NNW) 06:06:51 435.215
STRAND 1 27 Apr 06:03:29 06:07:41 27° 62° (ENE) 06:11:59 437.568
O/OREOS (USA 219) 27 Apr 06:04:46 06:06:27 12° 37° (NE) 06:08:16 437.305
Cubesat XI-IV 27 Apr 06:05:33 06:07:34 12° 84° (E) 06:09:53 437.490
AUBIESAT-1 27 Apr 06:12:34 06:17:23 83° 71° (ENE) 06:22:09 437.475
Cosmos 2499 27 Apr 06:24:27 06:32:21 75° 264° (W) 06:39:37 435.465 / 435.565
BEESAT 3 27 Apr 06:26:53 06:28:09 11° 346° (NNW) 06:29:22 437.485
BEESAT 2 27 Apr 06:30:11 06:31:41 12° 345° (NNW) 06:33:07 435.950
PRISM 27 Apr 06:42:20 06:46:27 65° 73° (ENE) 06:50:35 437.425
HORYU 2 27 Apr 06:44:09 06:46:41 15° 303° (WNW) 06:49:04 437.375
AO-7 27 Apr 06:44:27 06:52:28 53° 300° (WNW) 07:00:27 29.400- 29.500
DANDE 27 Apr 06:50:53 06:55:26 16° 278° (W) 06:59:52 436.750
GONETS M04 27 Apr 06:51:32 06:55:25 13° 290° (WNW) 06:58:43
CUBESAT XI-V 27 Apr 06:53:33 06:58:10 69° 258° (WSW) 07:02:47 437.345
JAS-2 27 Apr 06:58:23 07:03:48 28° 303° (WNW) 07:08:37 435.910
M-CUBED/EXP-1 PRIME 27 Apr 07:07:15 07:11:34 31° 260° (W) 07:15:48 437.505
PCSat 27 Apr 07:27:19 07:30:22 16° 106° (ESE) 07:33:38 145.827
CUTE-I 27 Apr 07:33:10 07:38:28 65° 102° (ESE) 07:43:46 437.470
STRAND 1 27 Apr 07:41:42 07:46:41 50° 261° (W) 07:51:39 437.568
AIST 2 27 Apr 07:42:17 07:43:25 11° 351° (N) 07:44:31 435.215
O/OREOS (USA 219) 27 Apr 07:42:28 07:46:57 58° 59° (ENE) 07:51:22 437.305
Cubesat XI-IV 27 Apr 07:43:20 07:48:41 79° 104° (ESE) 07:54:02 437.490
AUBIESAT-1 27 Apr 07:49:53 07:52:45 15° 267° (W) 07:55:27 437.475
BEESAT 3 27 Apr 08:07:35 08:07:58 10° 10° (N) 08:08:24 437.485
BEESAT 2 27 Apr 08:11:18 08:11:36 10° 9° (N) 08:11:57 435.950
GOMX 1 27 Apr 08:16:03 08:18:01 12° 84° (E) 08:20:19 467.674
Cosmos 2499 27 Apr 08:19:42 08:24:05 16° 286° (WNW) 08:27:57 435.465 / 435.565
PRISM 27 Apr 08:20:01 08:22:25 14° 271° (W) 08:24:39 437.425
Cosmos 2491 27 Apr 08:31:58 08:39:07 27° 57° (ENE) 08:46:28 435.465 / 435.565
HO-68 27 Apr 08:33:19 08:37:52 18° 85° (E) 08:42:42 435.675
BRITE-PL 27 Apr 08:35:59 08:40:14 26° 92° (E) 08:44:48 437.365/2234.400
AO-7 27 Apr 08:38:31 08:43:36 18° 323° (NW) 08:48:26 29.400- 29.500
DOVE 4 27 Apr 08:43:17 08:46:08 15° 85° (E) 08:49:14 437.250
TIGRISAT 27 Apr 09:05:58 09:07:24 12° 54° (NE) 09:09:02 435.000
PCSat 27 Apr 09:07:40 09:13:05 87° 125° (SE) 09:18:34 145.827
UNISAT 6 27 Apr 09:10:28 09:12:28 13° 56° (NE) 09:14:40 437.425
CUTE-I 27 Apr 09:14:00 09:18:10 23° 301° (WNW) 09:22:13 437.470
CINEMA 3 27 Apr 09:14:21 09:17:09 15° 86° (E) 09:20:09 145.822/145.860
COMPASS 1 27 Apr 09:22:02 09:25:07 20° 90° (E) 09:28:16 437.405
AIST 2 27 Apr 09:22:09 09:23:50 12° 14° (NNE) 09:25:34 435.215
O/OREOS (USA 219) 27 Apr 09:22:48 09:25:58 19° 258° (WSW) 09:29:01 437.305
Cubesat XI-IV 27 Apr 09:24:28 09:28:16 20° 303° (WNW) 09:31:56 437.490
QB50P1 27 Apr 09:38:11 09:39:00 11° 56° (NE) 09:40:01 145.935-145.965
BEESAT 3 27 Apr 09:44:06 09:47:26 23° 33° (NNE) 09:50:45 437.485
YUBILEINY 27 Apr 09:44:25 09:50:41 23° 78° (ENE) 09:57:15 435.215
BEESAT 2 27 Apr 09:47:55 09:51:12 22° 32° (NNE) 09:54:29 435.950
Oscar 11 27 Apr 09:49:29 09:52:17 17° 89° (E) 09:55:12 145.826/435.025
SEEDS 27 Apr 09:49:49 09:53:55 44° 98° (E) 09:57:59 437.485
ANTELSAT 27 Apr 09:50:23 09:54:12 27° 64° (ENE) 09:58:10 437.575/2403.000
GOMX 1 27 Apr 09:51:51 09:56:59 78° 103° (ESE) 10:02:24 467.674
ZACube-1 27 Apr 09:55:13 09:57:02 12° 84° (E) 09:59:05 437.345
CANX-2 27 Apr 10:01:19 10:05:39 77° 102° (ESE) 10:09:54 2200.000
AAUSAT CUBESAT 2 27 Apr 10:02:28 10:06:29 43° 98° (E) 10:10:29 437.432
QB50P2 27 Apr 10:02:41 10:05:31 18° 61° (ENE) 10:08:28 145.880/145.840
CUTE 1.7 + AOD 2 27 Apr 10:10:10 10:14:30 85° 103° (ESE) 10:18:46 437.475
BRITE-PL 27 Apr 10:14:05 10:18:59 51° 289° (WNW) 10:24:12 437.365/2234.400
NANOSAT C BR1 27 Apr 10:18:51 10:22:12 24° 64° (ENE) 10:25:40 145.865
DOVE 4 27 Apr 10:19:27 10:24:34 87° 289° (WNW) 10:29:53 437.250
HO-68 27 Apr 10:19:34 10:26:50 83° 107° (ESE) 10:34:02 435.675
POPSAT HIP 1 27 Apr 10:22:46 10:26:16 26° 65° (ENE) 10:29:50 437.405
DX 1 27 Apr 10:26:45 10:28:56 14° 87° (E) 10:31:19 434.975-435.025
Cosmos 2491 27 Apr 10:28:22 10:37:17 85° 261° (W) 10:46:08 435.465 / 435.565
AIST 1 27 Apr 10:28:30 10:29:54 12° 60° (ENE) 10:31:29
CUBEBUG 2 27 Apr 10:36:43 10:41:18 44° 97° (E) 10:45:53 437.445
BUGSAT 1 27 Apr 10:37:30 10:40:46 25° 65° (ENE) 10:44:07 437.445
TIGRISAT 27 Apr 10:38:48 10:43:20 69° 73° (ENE) 10:48:00 435.000
UNISAT 6 27 Apr 10:43:57 10:48:31 79° 74° (ENE) 10:53:14 437.425
CINEMA 3 27 Apr 10:50:00 10:55:01 83° 283° (WNW) 11:00:04 145.822/145.860
DUCHIFAT 1 27 Apr 10:51:23 10:55:25 47° 70° (ENE) 10:59:30 145.980
POLYITAN 1 27 Apr 10:52:41 10:56:47 50° 71° (ENE) 11:00:57 437.675
PCSat 27 Apr 10:52:45 10:57:14 25° 326° (NNW) 11:01:40 145.827
COMPASS 1 27 Apr 10:57:01 11:01:06 46° 289° (WNW) 11:05:06 437.405
UWE-3 27 Apr 10:58:49 11:03:29 59° 100° (E) 11:08:07 435.000/436.395/437.385
AIST 2 27 Apr 10:59:54 11:03:44 31° 37° (NE) 11:07:32 435.215
DELFI C3 27 Apr 11:00:49 11:04:52 64° 101° (ESE) 11:08:52 145.870
FUNcube-1 27 Apr 11:03:20 11:07:51 52° 99° (E) 11:12:20 145.935
UKube-1 27 Apr 11:05:57 11:09:48 30° 95° (E) 11:13:40 .
HUMSAT D 27 Apr 11:09:27 11:13:18 30° 94° (E) 11:17:10 437.325/437.525
QB50P1 27 Apr 11:09:58 11:14:10 74° 74° (ENE) 11:18:26 145.935-145.965
ESTCUBE 1 27 Apr 11:10:15 11:11:25 11° 84° (E) 11:12:48 437.505/2401.250
BEESAT 3 27 Apr 11:21:44 11:25:52 69° 234° (SW) 11:29:54 437.485
Oscar 11 27 Apr 11:24:36 11:28:54 59° 288° (WNW) 11:33:09 145.826/435.025
BEESAT 2 27 Apr 11:25:37 11:29:47 75° 233° (SW) 11:33:51 435.950
SEEDS 27 Apr 11:26:09 11:29:30 22° 296° (WNW) 11:32:45 437.485
ANTELSAT 27 Apr 11:26:27 11:30:49 42° 263° (W) 11:35:18 437.575/2403.000
ZACube-1 27 Apr 11:29:30 11:34:09 89° 275° (W) 11:38:46 437.345
GOMX 1 27 Apr 11:31:01 11:34:39 19° 299° (WNW) 11:38:17 467.674
QB50P2 27 Apr 11:36:51 11:41:03 59° 260° (W) 11:45:17 145.880/145.840
YUBILEINY 27 Apr 11:37:37 11:46:28 90° 279° (W) 11:55:21 435.215
AAUSAT CUBESAT 2 27 Apr 11:38:35 11:41:54 22° 296° (WNW) 11:45:07 437.432
CANX-2 27 Apr 11:38:35 11:41:03 15° 301° (WNW) 11:43:23 2200.000
50 SAT 27 Apr 11:38:57 11:42:44 37° 97° (E) 11:46:29 437.505
VELOX 1 27 Apr 11:40:15 11:44:20 35° 97° (E) 11:48:27 145.980
CUBEBUG 1 27 Apr 11:40:31 11:43:37 19° 90° (E) 11:46:51 437.445
ISS 27 Apr 11:43:51 11:46:08 18° 141° (SE) 11:48:29 145.825
CUTE 1.7 + AOD 2 27 Apr 11:47:41 11:49:51 13° 301° (WNW) 11:51:51 437.475
NANOSAT C BR1 27 Apr 11:53:53 11:57:52 41° 262° (W) 12:01:54 145.865
POPSAT HIP 1 27 Apr 11:58:05 12:02:01 37° 263° (W) 12:05:59 437.405
Oscar 19 27 Apr 11:58:25 12:01:13 15° 55° (NE) 12:04:13 437.125/150
DOVE 4 27 Apr 11:58:35 12:01:44 16° 302° (WNW) 12:04:48 437.250
AISAT 27 Apr 11:58:44 12:03:09 55° 100° (E) 12:07:33 437.250
DX 1 27 Apr 12:01:24 12:05:46 73° 288° (WNW) 12:10:08 434.975-435.025
SO-50 27 Apr 12:03:39 12:08:16 60° 124° (SE) 12:13:04 436.795
AIST 1 27 Apr 12:04:02 12:08:20 89° 263° (W) 12:12:37
HO-68 27 Apr 12:08:06 12:13:54 27° 307° (NW) 12:19:33 435.675
BUGSAT 1 27 Apr 12:12:26 12:16:09 35° 263° (W) 12:19:52 437.445
CUBEBUG 2 27 Apr 12:13:45 12:17:49 28° 296° (WNW) 12:21:48 437.445
TISAT 1 27 Apr 12:17:32 12:17:52 10° 84° (E) 12:18:27 437.305
TIGRISAT 27 Apr 12:17:45 12:20:40 16° 273° (W) 12:23:28 435.000
UNISAT 6 27 Apr 12:23:27 12:26:00 14° 274° (W) 12:28:22 437.425
Cosmos 2491 27 Apr 12:26:43 12:32:59 21° 283° (WNW) 12:38:53 435.465 / 435.565
DUCHIFAT 1 27 Apr 12:28:21 12:31:31 20° 269° (W) 12:34:37 145.980
CINEMA 3 27 Apr 12:28:42 12:31:33 15° 303° (WNW) 12:34:15 145.822/145.860
POLYITAN 1 27 Apr 12:29:56 12:33:02 19° 270° (W) 12:36:03 437.675
UWE-3 27 Apr 12:36:05 12:39:39 21° 298° (WNW) 12:43:07 435.000/436.395/437.385
RS-15 27 Apr 12:36:41 12:40:37 13° 95° (E) 12:45:29 29.354- 29.394
DELFI C3 27 Apr 12:37:07 12:39:35 15° 299° (WNW) 12:41:55 145.870
AIST 2 27 Apr 12:38:23 12:42:29 46° 238° (WSW) 12:46:29 435.215
ITAMSAT 1 27 Apr 12:38:41 12:40:29 12° 52° (NE) 12:42:31 435.822/435.867
FUNcube-1 27 Apr 12:40:15 12:43:53 23° 297° (WNW) 12:47:25 145.935
PCSat 27 Apr 12:40:23 12:42:39 12° 352° (N) 12:44:52 145.827
UKube-1 27 Apr 12:42:03 12:45:57 32° 294° (WNW) 12:49:48 .
ESTCUBE 1 27 Apr 12:44:33 12:49:05 87° 108° (ESE) 12:53:34 437.505/2401.250
HUMSAT D 27 Apr 12:45:10 12:49:05 32° 293° (WNW) 12:52:55 437.325/437.525
QB50P1 27 Apr 12:48:33 12:50:38 13° 273° (W) 12:52:33 145.935-145.965
SPROUT 27 Apr 12:52:55 12:56:43 30° 95° (E) 13:00:34 437.525
Cosmos 2504 27 Apr 12:57:26 13:05:13 37° 85° (E) 13:13:00 435.465 / 435.565
ZACube-1 27 Apr 13:07:23 13:09:53 14° 302° (WNW) 13:12:13 437.345
50 SAT 27 Apr 13:14:03 13:17:23 24° 295° (WNW) 13:20:38 437.505
CUBEBUG 1 27 Apr 13:16:04 13:20:20 52° 289° (WNW) 13:24:35 437.445
VELOX 1 27 Apr 13:16:57 13:20:50 30° 295° (WNW) 13:24:40 145.980
Gurwin Techsat 1B 27 Apr 13:17:48 13:21:39 21° 58° (ENE) 13:25:38 435.225
ISS 27 Apr 13:18:51 13:22:07 79° 159° (SSE) 13:25:24 145.825
